This demonstration page uses our WeatherBlox Daily Observations layout. Learn more.

Left ArrowRight Arrow

Hourly Observations for July 18, 2018

Temp ( °F °C ) Dew Point ( °F °C ) Humidity (%) Winds ( mph kmh ) Pressure ( in mb ) Visibility ( mi km ) Precip ( " mm )
12:53 am 00:53 Clear 82 27.8 57 13.9 42 42 N 3 6 29.88 1012 10 16 0.00 0.00
1:53 am 01:53 Clear 79 26.1 57 13.9 47 47 N 3 6 29.88 1012 10 16 0.00 0.00
2:53 am 02:53 Clear 78 25.6 58 14.4 50 50 N 3 6 29.88 1012 10 16 0.00 0.00
3:53 am 03:53 Clear 76 24.4 56 13.3 50 50 Calm 29.90 1012 10 16 0.00 0.00
4:53 am 04:53 Clear 75 23.9 57 13.9 54 54 Calm 29.90 1012 10 16 0.00 0.00
5:53 am 05:53 Clear 73 22.8 57 13.9 57 57 Calm 29.91 1013 10 16 0.00 0.00
6:53 am 06:53 Sunny 76 24.4 57 13.9 52 52 Calm 29.92 1013 10 16 0.00 0.00
7:53 am 07:53 Sunny 81 27.2 57 13.9 44 44 Calm 29.93 1014 10 16 0.00 0.00
8:53 am 08:53 Sunny 87 30.6 54 12.2 32 32 N 5 7 29.93 1014 10 16 0.00 0.00
9:53 am 09:53 Sunny 92 33.3 54 12.2 28 28 Calm 29.92 1013 10 16 0.00 0.00
10:53 am 10:53 Sunny 96 35.6 53 11.7 23 23 VRB 3 6 29.90 1013 10 16 0.00 0.00
11:53 am 11:53 Sunny 99 37.2 50 10 19 19 VRB 3 6 29.89 1012 10 16 0.00 0.00
12:53 pm 12:53 Sunny 104 40 47 8.3 15 15 VRB 3 6 29.87 1012 10 16 0.00 0.00
1:53 pm 13:53 Sunny 105 40.6 47 8.3 14 14 undefined N/A 29.85 1011 10 16 0.00 0.00
2:53 pm 14:53 Sunny 107 41.7 43 6.1 11 11 Calm 29.82 1010 10 16 0.00 0.00
3:53 pm 15:53 Sunny 108 42.2 39 3.9 9 9 SSE 6 9 29.80 1009 10 16 0.00 0.00
4:53 pm 16:53 Sunny 108 42.2 45 7.2 12 12 SSE 7 11 29.79 1009 10 16 0.00 0.00
5:53 pm 17:53 Sunny 107 41.7 48 8.9 14 14 SSE 14 22 29.78 1008 10 16 0.00 0.00
6:53 pm 18:53 Sunny 103 39.4 55 12.8 20 20 S 9 15 29.77 1008 10 16 0.00 0.00
7:53 pm 19:53 Sunny 100 37.8 57 13.9 24 24 SSE 9 15 29.77 1008 10 16 0.00 0.00
8:53 pm 20:53 Clear 94 34.4 57 13.9 29 29 ESE 5 7 29.78 1009 10 16 0.00 0.00
9:53 pm 21:53 Clear 92 33.3 57 13.9 31 31 SSE 5 7 29.80 1009 10 16 0.00 0.00
10:53 pm 22:53 Clear 87 30.6 57 13.9 36 36 Calm 29.81 1010 10 16 0.00 0.00
11:53 pm 23:53 Clear 86 30 58 14.4 39 39 N 5 7 29.82 1010 10 16 0.00 0.00

Powered by AerisWeather